SL-16 DEB, 22354

Orbit data source: Space-Track

SL-16 DEB, 22354 is space debris in LEO originally from a launch on Fri, 25 Dec 1992 UTC launched from the Tyuratam Missile And Space Complex (TTMTR). Debris objects in space refer to the collection of defunct objects orbiting the Earth. Examples of debris include non-operational satellites, rocket bodies, and fragments generated from explosions, collisions, or faulty payload assembly.

Loading next visibility...
Identifier
22354, 1992-093AT
Orbit
LEO
Country
Flag of CISCIS
Related business
Manufacturer
Unknown
Mission
Spacecraft
Bus & Motor
Unknown
Mass
Unknown
Launch date (UTC)
1992-12-25 (33 years ago)
Launch vehicle
Unknown
Launch site
Tyuratam Missile And Space Complex (TTMTR)
Object type
Payload
Rocket body
Debris
Shape & HBR
Unknown shape, 0.7 m
Radar Cross Section
Medium (>0.1 m² and <1 m²)

Expand to show TLE details & history
Last TLE update: 3 hours ago

TLE from 3 hours ago
0 SL-16 DEB
1 22354U 92093AT  25304.66274602  .00000114  00000-0  11155-3 0  9998
2 22354  71.1442 288.8600 0142712 176.8026 296.3002 13.92934098666442
Epoch: 2025-10-31T15:54Z
TLE epoch observation values (Epoch: 2025-10-31T15:54:21.256Z)
Latitude
61.71643°
Longitude
150.9172°
Altitude
883.459 km
Speed
7.439 km/s
True Right ascension
04h 38m 50s
True Declination
61° 34' 31"
Sunlit
Object was in full shadow at epoch
Visualization orbit readout
Latitude
Unknown
Longitude
Unknown
Altitude
Unknown
Speed
Unknown
Apparent Right ascension
Unknown
Apparent Declination
Unknown
Sunlit
N/A
Visualization observer readout
Local Sidereal Time
14:53:25
Azimuth
Unknown
Elevation
Unknown
Doppler factor
Unknown
Orbital elements
Apogee altitude
1,020.399 km
Perigee altitude
812.198 km
Semi-major axis
7,294.435 km
Eccentricity
0.01427
Inclination
71.1442°
RAAN
288.86°
Arg. of periapsis
176.8026°
True anomaly
294.82261°
Mean anomaly
296.3002°
Eccentric anomaly
295.56256°
Mean motion
3.48382 °/min
Orbital period
103.33 mins
BSTAR
0.00011155
Loading maneuver chart data...
Computing Atmospheric mass density...
Loading historical data...
Loading historical data...
Loading historical data...
Loading historical data...
Loading historical data...
Loading historical data...
Loading historical data...

Documentation

Showing up to 5 results
|